Weather History for Perugia, Italy

Change the Weather History Date:

Thursday, September 5, 2013

  Actual Average Record
Temperature  
Mean Temperature 74 °F -  
Max Temperature 89 °F 73 °F 91 °F (2008)
Min Temperature 59 °F 53 °F 48 °F (2007)
Cooling Degree Days 9    
Growing Degree Days 24 (Base 50)    
Moisture  
Dew Point 55 °F    
Average Humidity 48    
Maximum Humidity 88    
Minimum Humidity 26    
Precipitation  
Precipitation 0.00 in 0.09 in - ()
Sea Level Pressure  
Sea Level Pressure 30.03 in    
Wind  
Wind Speed 4 mph ()    
Max Wind Speed 12 mph    
Max Gust Speed -    
Visibility 6.2 miles    
Events      
Averages and records for this station are not official NWS values.
T = Trace of Precipitation, MM = Missing Value Source: Averaged Metar Reports

Daily Weather History Graph

Daily Weather History Graph

Search for Another Location

Airport:

Trip Planner

Search our weather history database for the weather conditions in past years. The results will help you decide how hot, cold, wet, or windy it might be!

Date:

Astronomy

Sep. 05, 2013 Rise Set
Actual Time 6:38 AM CEST 7:37 PM CEST
Civil Twilight 6:09 AM CEST 8:06 PM CEST
Nautical Twilight 5:34 AM CEST 8:41 PM CEST
Astronomical Twilight 4:58 AM CEST 9:17 PM CEST
Moon 6:34 AM CEST (9/5) 7:18 PM CEST (9/5)
Length of Visible Light 13h 57m
Length of Day
12h 59m
Waning Crescent, 0% of the Moon is Illuminated
Sep 5
Waning Crescent
Sep 5
New
Sep 12
First Quarter
Sep 19
Full
Sep 27
Last Quarter

Hourly Weather History & Observations

Time (CEST) Temp. Heat Index Dew Point Humidity Pressure Visibility Wind Dir Wind Speed Gust Speed Precip Events Conditions
6:06 AM 60.8 °F - 55.4 °F 82% 30.09 in - North 6.9 mph - N/A   Clear
6:50 AM 59.0 °F - 55.4 °F 88% 30.09 in - North 6.9 mph - N/A   Clear
7:50 AM 62.6 °F - 55.4 °F 77% 30.09 in - North 5.8 mph - N/A   Clear
8:50 AM 68.0 °F - 57.2 °F 68% 30.09 in - Variable 3.5 mph - N/A   Clear
9:50 AM 73.4 °F - 57.2 °F 57% 30.09 in - Variable 2.3 mph - N/A   Clear
10:50 AM 77.0 °F - 57.2 °F 50% 30.09 in - Variable 2.3 mph - N/A   Clear
11:50 AM 80.6 °F 80.5 °F 55.4 °F 42% 30.06 in 6.2 mi Variable 3.5 mph - N/A   Partly Cloudy
12:50 PM 84.2 °F 83.0 °F 55.4 °F 37% 30.04 in 6.2 mi Variable 1.2 mph - N/A   Partly Cloudy
1:50 PM 86.0 °F - 51.8 °F 31% 30.01 in 6.2 mi Variable 3.5 mph - N/A   Partly Cloudy
2:50 PM 87.8 °F - 51.8 °F 29% 30.01 in 6.2 mi NNW 4.6 mph - N/A   Partly Cloudy
3:50 PM 89.6 °F - 51.8 °F 27% 29.98 in 6.2 mi West 5.8 mph - N/A   Partly Cloudy
4:50 PM 89.6 °F - 50.0 °F 26% 29.98 in 6.2 mi WSW 5.8 mph - N/A   Partly Cloudy
5:50 PM 89.6 °F - 51.8 °F 27% 29.95 in 6.2 mi WSW 6.9 mph - N/A   Scattered Clouds
6:50 PM 87.8 °F - 50.0 °F 27% 29.95 in 6.2 mi West 4.6 mph - N/A   Scattered Clouds
7:50 PM 82.4 °F 81.7 °F 55.4 °F 39% 29.95 in 6.2 mi Variable 1.2 mph - N/A   Partly Cloudy
8:50 PM 78.8 °F - 57.2 °F 47% 29.98 in 6.2 mi WSW 11.5 mph - N/A   Partly Cloudy
9:50 PM 77.0 °F - 55.4 °F 47% 30.01 in 6.2 mi SSE 4.6 mph - N/A   Partly Cloudy
10:50 PM 75.2 °F - 55.4 °F 50% 30.01 in - WSW 3.5 mph - N/A   Clear
11:50 PM 71.6 °F - 57.2 °F 60% 30.01 in - Variable 1.2 mph - N/A   Clear